User: anonymous   Login
Location: Mahannah Oil Field
(37.4664°N, 96.6003°W)
Time: 08:17:20
(UTC+00:00)
Language:

Vanguard 2 Rocket - Orbit

View from above orbital plane
View from above orbital plane
View from above satellite
View from above satellite

Ground track
Ground track

The orbit data is extracted from the following two-line orbital elements,

1 00012U 59001B   21023.85639782  .00000141  00000-0  76236-4 0  9998
2 00012  32.9001 299.8023 1666016 154.7307 214.5109 11.44389263305232
Epoch (UTC): 23 January 2021 20:33:12
Eccentricity: 0.1666016
inclination: 32.9001°
perigee height: 554 km
apogee height: 3325 km
right ascension of ascending node: 299.8023°
argument of perigee: 154.7307°
revolutions per day: 11.44389263
mean anomaly at epoch: 214.5109°
orbit number at epoch: 30523

The dashed part of the orbit path shows where the satellite is in the earth's shadow,  

DLR